Temp
7 7 7 7 7 6 6 6 6 6 6 6 5 5 5 5 5 5 5 5 5 5 5 5 5 5 5 5 5 5 5 5 5 5 5 5 5 4 4 4 4 4 3 3 3 3 3 3 2 2 2 1 1 1 -0 -1 -1 -1 -1 -1 -1 -1 -1 -1 -1 -1 -1 -1 -1
7 7 7 7 6 6 6 6 6 6 5 5 5 5 5 5 5 4 4 4 4 4 4 4 4 4 5 5 5 5 5 5 5 5 5 4 4 4 4 4 3 3 3 3 3 3 2 2 2 1 1 0 0 0 -0 -1 -1 -1 -1 -1 -1 -1 -1 -1 -1 -1 -1 -1 -1
7 7 7 7 6 6 6 6 6 5 5 5 5 5 5 4 4 4 4 4 4 4 4 4 4 4 4 4 4 4 4 4 4 4 4 4 4 4 4 3 3 3 3 3 3 2 2 1 1 1 0 -0 -0 -1 -1 -1 -1 -1 -1 -1 -1 -1 -1 -1 -1 -1 -1 -0 -0
7 7 7 6 6 6 6 5 5 5 5 5 5 4 4 4 4 4 4 4 4 4 4 4 4 4 4 4 4 4 4 4 4 4 4 4 4 3 3 3 3 3 3 2 2 2 1 1 1 1 0 -0 -0 -0 -0 -1 -1 -1 -1 -1 -0 -0 -0 0 0 0 0 0 0
7 7 6 6 6 6 6 6 5 5 5 5 4 4 4 4 4 3 3 3 3 3 3 3 3 3 3 3 3 4 4 4 4 4 4 3 3 3 3 3 3 3 2 2 2 2 1 1 1 1 1 1 0 0 0 0 -0 -0 0 0 0 0 1 1 1 1 1 1 1
6 6 6 6 6 6 6 6 5 5 5 4 4 4 4 3 3 3 3 3 3 3 3 3 3 3 3 3 3 3 3 3 3 3 3 3 3 3 3 3 3 3 2 2 2 2 2 2 1 1 1 1 1 1 1 1 1 1 1 1 1 1 1 1 1 1 1 1 1
6 6 6 6 6 6 6 6 5 5 4 4 4 3 3 3 3 3 3 3 3 3 3 3 3 3 3 3 3 3 3 3 3 3 3 3 3 3 3 3 3 2 2 2 2 2 2 2 2 1 1 1 1 1 1 1 1 1 1 1 1 1 1 1 1 1 1 1 1
6 6 6 6 6 6 5 5 5 4 4 3 3 3 3 3 3 3 3 3 3 3 3 3 3 3 3 3 3 3 3 3 3 2 2 2 2 2 3 3 2 2 2 2 2 2 2 2 1 1 1 1 1 1 1 1 1 1 1 1 1 1 1 1 1 1 1 1 1
6 6 6 6 6 5 5 5 4 4 3 3 3 3 3 3 3 2 2 3 3 3 3 3 3 3 3 3 2 2 2 2 2 2 2 2 2 2 2 2 2 2 2 2 2 2 2 2 1 1 1 1 1 1 1 1 1 1 1 1 1 1 1 1 1 0 0 0 0
6 6 6 6 5 5 5 5 4 4 3 3 3 3 3 3 2 2 2 3 3 3 3 3 3 3 3 2 2 2 2 1 1 1 1 1 1 2 2 2 2 2 2 2 2 2 2 1 1 1 1 1 1 1 1 1 1 1 1 1 1 1 1 1 0 0 0 0 0
6 6 5 5 5 5 4 4 4 3 3 3 3 3 3 2 2 2 2 3 3 3 3 3 3 3 3 2 2 1 1 1 1 1 1 1 1 1 2 2 2 2 2 2 2 2 1 1 1 1 1 1 1 1 1 1 1 1 1 1 1 1 1 1 0 0 0 0 0
6 5 5 5 5 4 4 4 3 3 3 2 2 2 2 2 2 2 2 2 2 2 2 2 2 2 2 2 1 1 1 1 1 1 1 1 1 1 1 1 1 1 1 1 1 1 1 1 1 1 1 1 1 1 1 1 1 1 1 1 1 1 1 0 0 0 0 -0 -0
5 5 5 5 4 4 4 3 3 3 2 2 2 2 2 2 2 2 2 2 2 2 2 2 2 2 2 2 1 1 1 1 1 1 1 1 1 1 1 1 1 1 1 1 1 1 1 1 1 1 1 1 1 1 1 1 1 1 1 1 1 1 1 0 0 -0 -0 -0 -0
5 5 5 4 4 4 3 3 2 2 2 2 2 2 2 2 2 2 2 2 2 1 1 1 2 2 2 2 1 1 2 2 2 2 2 2 2 2 2 1 1 1 1 1 1 1 1 1 1 1 1 1 1 1 1 1 1 1 1 1 1 1 1 1 0 -0 -0 -0 -1
5 5 4 4 4 3 3 2 2 2 2 2 2 2 2 2 2 2 1 1 1 1 1 1 2 2 2 1 1 1 1 1 2 2 2 2 2 2 2 2 2 2 2 2 2 2 2 2 1 1 1 1 1 1 1 1 1 1 1 1 1 1 1 1 0 -0 -0 -1 -1
5 4 4 4 3 3 2 2 1 1 2 2 2 2 2 1 1 1 1 1 1 1 1 2 2 2 2 2 1 1 1 1 1 1 2 2 2 2 2 2 2 2 2 2 2 2 2 2 2 2 1 1 1 1 1 1 1 1 1 1 1 1 1 1 0 0 -0 -1 -1
5 4 4 4 3 3 2 2 1 1 2 2 2 1 1 1 1 1 1 1 1 1 2 2 2 2 2 2 2 2 2 2 2 2 2 2 2 2 2 2 2 2 2 2 2 2 2 2 2 2 2 1 1 1 1 1 1 1 1 1 0 0 0 0 0 0 -0 -0 -1
4 4 4 3 3 3 2 2 1 1 2 2 2 1 1 1 1 1 1 1 1 2 2 2 2 2 2 2 2 2 2 2 2 2 2 2 2 2 2 2 2 2 2 2 2 2 2 2 2 2 1 1 1 1 1 1 1 0 0 0 0 0 -0 -0 -0 -0 -0 -0 -1
4 4 3 3 3 2 2 2 2 2 2 2 1 1 1 1 1 1 1 1 2 2 2 2 2 2 2 2 2 2 2 2 2 3 2 2 2 2 2 2 2 2 2 2 2 2 2 1 1 1 1 1 1 1 0 0 0 0 -0 -0 -0 -0 -0 -0 -0 -1 -1 -1 -1
4 3 3 3 2 2 2 2 2 2 2 1 1 2 2 2 2 2 2 2 2 2 2 2 2 2 2 2 2 2 2 2 2 2 2 2 2 2 2 2 2 2 2 1 1 1 1 1 1 1 0 0 0 0 -0 -0 -0 -0 -1 -1 -1 -1 -1 -1 -1 -1 -1 -1 -1
4 3 3 3 2 2 2 2 2 2 2 1 2 2 2 2 2 2 2 2 2 2 2 2 2 2 2 2 2 2 2 2 2 2 2 2 2 2 2 2 2 1 1 1 1 1 1 1 0 0 0 -0 -0 -0 -1 -1 -1 -1 -1 -1 -1 -1 -1 -1 -1 -1 -1 -1 -1
3 3 3 2 2 2 2 2 2 2 1 1 1 2 2 2 2 2 2 2 2 2 2 2 2 2 2 2 2 2 2 2 2 2 2 2 2 2 1 1 1 1 1 1 1 1 1 0 0 -0 -0 -0 -1 -1 -1 -1 -1 -1 -1 -1 -1 -1 -2 -2 -2 -2 -2 -2 -2
3 3 2 2 2 1 1 1 1 1 1 1 1 1 1 2 2 2 2 2 2 2 2 2 2 2 2 2 2 2 2 2 2 2 2 1 1 1 1 1 1 1 1 0 0 0 0 0 -0 -0 -0 -1 -1 -1 -1 -1 -1 -2 -2 -2 -2 -2 -2 -2 -2 -2 -2 -2 -2
3 3 2 2 2 1 1 1 1 1 1 1 1 1 1 1 2 2 2 2 2 2 2 2 1 1 1 1 2 2 1 1 1 1 1 1 1 1 1 1 1 0 0 0 -0 -0 -0 -1 -1 -1 -1 -1 -1 -1 -1 -2 -2 -2 -2 -2 -2 -2 -2 -2 -2 -2 -3 -3 -3
3 2 2 2 1 1 1 1 1 1 1 1 1 1 1 1 1 1 1 2 2 2 2 1 1 1 1 1 1 1 1 1 1 1 1 1 1 1 1 0 0 0 -0 -0 -0 -1 -1 -1 -1 -1 -1 -2 -2 -2 -2 -2 -2 -2 -3 -3 -3 -3 -3 -3 -3 -3 -3 -3 -3
3 2 2 1 1 1 1 1 1 1 1 1 1 1 1 1 1 1 1 1 1 1 1 1 1 1 1 1 1 1 1 1 1 1 1 1 1 0 0 0 -0 -0 -0 -1 -1 -1 -1 -1 -2 -2 -2 -2 -2 -2 -2 -3 -3 -3 -3 -3 -3 -3 -3 -3 -3 -3 -3 -3 -3
3 2 2 1 1 1 1 1 1 1 1 1 1 1 1 1 1 1 1 1 1 1 1 1 1 1 1 1 1 1 1 1 1 1 0 0 0 0 -0 -0 -0 -1 -1 -1 -1 -1 -1 -2 -2 -2 -2 -3 -3 -3 -3 -3 -3 -3 -3 -4 -4 -4 -4 -4 -4 -4 -4 -4 -4
2 2 2 1 1 1 1 1 1 1 1 1 1 1 1 1 1 1 1 1 1 1 1 1 1 1 0 0 1 1 0 0 0 0 0 0 -0 -0 -0 -1 -1 -1 -1 -1 -2 -2 -2 -2 -2 -3 -3 -3 -3 -3 -4 -4 -4 -4 -4 -4 -4 -4 -5 -5 -5 -5 -5 -5 -5
2 2 2 1 1 1 1 1 1 1 1 1 1 1 1 1 1 1 1 1 1 1 1 1 1 0 0 0 0 0 0 0 0 0 -0 -0 -0 -0 -1 -1 -1 -1 -2 -2 -2 -2 -2 -3 -3 -3 -3 -3 -4 -4 -4 -4 -4 -5 -5 -5 -5 -5 -5 -6 -6 -6 -6 -6 -6
2 2 2 1 1 1 1 1 1 1 1 1 1 1 1 1 1 1 1 1 1 1 1 1 1 0 0 0 0 0 0 0 -0 -0 -0 -0 -1 -1 -1 -1 -1 -2 -2 -2 -2 -3 -3 -3 -3 -4 -4 -4 -4 -4 -5 -5 -5 -5 -5 -6 -6 -6 -6 -6 -6 -6 -7 -7 -7
2 2 2 1 1 1 1 1 1 1 1 1 1 1 1 1 1 1 0 0 0 1 1 1 1 0 0 -0 -0 -0 -0 -0 -0 -0 -1 -1 -1 -1 -1 -2 -2 -2 -2 -3 -3 -3 -3 -4 -4 -4 -4 -5 -5 -5 -5 -5 -6 -6 -6 -6 -7 -7 -7 -7 -7 -7 -7 -7 -7
2 2 1 1 1 1 1 1 1 1 1 1 1 1 1 1 1 1 0 0 0 0 1 1 1 0 0 -0 -0 -0 -0 -0 -0 -1 -1 -1 -1 -1 -2 -2 -2 -2 -3 -3 -3 -4 -4 -4 -4 -5 -5 -5 -5 -6 -6 -6 -6 -6 -7 -7 -7 -7 -7 -7 -7 -8 -8 -8 -8
2 2 1 1 1 1 1 1 1 1 1 1 1 1 1 1 1 0 0 0 0 0 0 0 0 0 -0 -0 -0 -0 -0 -0 -1 -1 -1 -1 -2 -2 -2 -2 -2 -3 -3 -3 -4 -4 -4 -5 -5 -5 -5 -5 -6 -6 -6 -6 -6 -7 -7 -7 -7 -8 -8 -8 -8 -8 -8 -8 -8
2 2 1 1 1 1 1 1 1 1 1 1 1 1 1 0 0 0 0 0 0 0 0 0 -0 -0 -0 -0 -1 -0 -1 -1 -1 -1 -1 -2 -2 -2 -2 -2 -2 -3 -3 -4 -4 -5 -5 -5 -5 -5 -5 -6 -6 -6 -6 -7 -7 -7 -7 -8 -8 -8 -8 -8 -8 -8 -8 -8 -8
2 1 1 1 1 1 1 1 1 1 1 1 0 0 0 0 0 0 0 0 0 0 0 0 -0 -0 -1 -1 -1 -1 -1 -1 -1 -1 -2 -2 -2 -2 -2 -3 -3 -3 -3 -4 -4 -5 -5 -5 -5 -5 -6 -6 -6 -6 -7 -7 -7 -8 -8 -8 -8 -8 -8 -8 -8 -8 -8 -8 -8
2 1 1 1 1 1 1 1 1 1 0 0 0 0 0 0 0 0 0 0 0 0 0 0 -0 -0 -1 -1 -1 -1 -1 -1 -1 -2 -2 -2 -2 -2 -3 -3 -3 -3 -4 -4 -4 -5 -5 -5 -5 -6 -6 -6 -6 -7 -7 -7 -8 -8 -8 -8 -8 -8 -8 -8 -8 -8 -8 -8 -8
2 1 1 1 1 1 1 1 1 0 0 0 0 0 0 0 0 0 0 0 0 0 0 0 -0 -0 -0 -1 -1 -1 -1 -1 -2 -2 -2 -2 -3 -3 -3 -3 -3 -4 -4 -4 -5 -5 -5 -6 -6 -6 -6 -6 -7 -7 -7 -7 -8 -8 -8 -8 -8 -8 -8 -8 -8 -8 -8 -8 -8
1 1 1 1 1 1 1 0 0 0 0 0 0 0 -0 -0 0 0 0 -0 -0 -0 0 0 -0 -0 -0 -1 -1 -1 -1 -2 -2 -2 -2 -3 -3 -3 -3 -3 -4 -4 -4 -5 -5 -5 -5 -6 -6 -6 -6 -7 -7 -7 -7 -8 -8 -8 -8 -8 -8 -8 -8 -8 -8 -8 -8 -9 -9
1 1 1 1 1 0 0 0 0 0 0 -0 -0 -0 -0 -0 -0 0 0 -0 -0 -0 -0 -0 -0 -0 -1 -1 -1 -1 -2 -2 -2 -3 -3 -3 -3 -3 -4 -4 -4 -4 -5 -5 -5 -5 -6 -6 -6 -6 -6 -7 -7 -7 -8 -8 -8 -8 -8 -8 -8 -8 -8 -8 -8 -9 -9 -9 -9
1 1 1 1 0 0 0 0 0 -0 -0 -0 -0 -0 -0 -0 -0 -0 -0 -0 -0 -0 -0 -0 -0 -1 -1 -1 -1 -2 -2 -2 -3 -3 -3 -3 -3 -4 -4 -4 -4 -5 -5 -5 -5 -6 -6 -6 -6 -7 -7 -7 -7 -7 -8 -8 -8 -8 -8 -8 -8 -8 -8 -8 -9 -9 -9 -9 -9
1 1 1 0 0 0 0 0 -0 -0 -0 -0 -0 -0 -0 -0 -0 -0 -0 -0 -0 -0 -0 -0 -1 -1 -1 -1 -2 -2 -2 -3 -3 -3 -3 -3 -4 -4 -4 -4 -5 -5 -5 -5 -6 -6 -6 -7 -7 -7 -7 -7 -7 -8 -8 -8 -8 -8 -8 -8 -8 -8 -8 -9 -9 -9 -9 -9 -9
Height
857 857 856 855 855 854 853 852 851 850 849 848 847 846 845 844 843 842 841 840 839 838 837 836 835 834 833 832 831 830 829 828 827 826 825 824 823 822 822 821 821 820 820 819 819 818 817 817 816 815 814 813 813 812 813 813 814 814 813 813 812 812 812 812 812 811 812 812 812
857 857 856 855 854 853 852 851 850 849 848 847 847 846 845 843 842 841 840 839 838 837 836 835 834 833 832 831 831 830 829 828 827 826 825 824 823 823 822 822 821 820 820 819 819 818 817 817 817 816 815 814 813 813 813 813 813 813 813 813 813 812 812 812 812 812 811 811 810
857 856 855 854 853 852 851 850 849 848 847 846 846 845 844 843 842 841 840 838 837 837 835 834 833 833 832 831 830 829 828 827 827 826 825 824 823 823 822 822 821 820 820 819 819 818 818 817 817 816 815 815 814 813 813 813 813 813 813 813 813 813 813 812 812 812 811 810 809
856 856 855 853 852 852 851 849 848 847 846 845 845 844 843 842 841 840 839 838 837 836 835 833 833 832 832 831 830 829 828 827 826 825 825 824 823 822 822 821 821 820 819 819 818 818 817 817 817 816 816 815 814 814 813 813 813 813 813 813 812 812 812 812 811 811 810 810 809
856 855 854 853 852 851 850 849 848 847 846 845 844 843 842 841 840 839 838 837 836 835 834 833 832 831 831 830 829 828 827 827 826 825 824 824 823 822 822 821 820 820 819 819 818 818 817 817 817 816 816 815 814 814 813 812 812 812 812 811 811 811 811 810 810 810 810 809 808
856 855 854 853 852 851 850 849 847 847 845 844 843 842 841 840 839 838 837 836 835 834 833 832 831 831 830 829 829 828 827 826 826 825 824 823 822 822 822 821 820 820 819 819 818 818 817 817 816 816 815 815 814 813 813 812 811 811 810 810 810 810 810 810 810 809 809 808 808
856 855 853 852 851 850 849 848 847 846 845 844 843 842 841 840 839 838 837 835 834 833 832 831 830 829 829 828 828 827 827 826 825 825 824 823 822 822 821 821 820 819 819 818 818 817 817 817 816 816 815 815 814 814 813 812 812 812 811 811 811 811 810 810 809 808 808 807 807
855 854 853 852 851 850 849 847 846 845 844 843 842 841 840 839 838 837 836 834 833 832 831 830 829 828 828 827 827 827 826 826 825 824 824 823 822 821 821 820 820 819 819 818 818 817 817 817 816 816 815 815 815 814 814 813 813 813 812 812 812 811 810 809 809 808 807 806 805
855 854 852 852 850 849 848 847 846 845 843 843 842 841 840 839 838 837 835 834 833 832 830 829 828 827 827 827 827 826 826 825 825 824 823 823 822 822 821 820 820 819 819 818 817 817 817 817 816 816 816 815 815 815 814 814 813 813 813 812 812 811 810 809 808 807 806 805 804
854 853 852 851 849 848 847 846 845 844 843 842 841 840 839 838 837 836 835 834 832 831 830 829 828 827 826 826 826 826 826 825 824 824 823 823 822 822 821 821 820 819 819 818 818 817 817 817 816 816 816 815 815 815 814 814 813 813 812 812 811 810 809 808 807 807 806 805 803
853 852 851 850 849 847 846 845 844 843 842 842 841 840 839 838 837 836 835 833 832 831 830 829 827 827 826 826 826 825 825 825 824 823 823 822 822 822 821 821 820 819 819 818 818 817 817 817 816 816 815 815 815 814 814 814 813 812 812 811 810 810 809 808 807 806 805 804 803
853 852 851 849 848 847 846 844 843 843 842 841 840 839 838 837 837 835 834 833 832 831 830 829 828 827 826 825 825 825 824 824 823 823 822 822 822 821 821 821 820 820 819 819 818 818 817 817 816 816 815 815 814 814 814 813 812 812 811 810 810 809 808 807 806 805 804 803 802
852 851 850 849 847 846 845 844 843 842 842 841 840 839 838 837 836 835 834 833 832 831 830 829 828 827 826 826 825 824 824 823 823 822 822 822 821 821 820 820 820 819 819 818 818 818 817 817 816 815 815 814 814 813 813 812 812 811 810 809 809 808 807 806 806 805 804 803 802
852 851 849 848 847 846 845 844 843 842 842 841 840 839 838 837 836 835 834 833 832 832 831 830 829 828 827 826 825 824 824 823 822 822 822 821 821 820 820 820 819 819 818 818 817 817 816 815 815 814 814 813 813 812 812 812 811 810 809 809 808 807 806 806 805 804 803 802 802
851 850 849 847 847 845 844 843 843 842 841 841 840 839 838 837 836 835 834 833 833 832 831 830 829 828 827 827 826 825 824 823 823 822 822 821 821 820 820 819 819 818 817 817 816 815 815 814 813 813 813 812 812 812 811 811 810 810 809 808 807 807 806 805 804 804 803 802 801
850 849 848 847 846 845 844 843 843 842 841 841 840 839 838 837 836 835 834 834 833 832 831 830 829 828 828 827 826 825 824 824 823 822 822 821 821 820 819 819 818 817 816 815 815 814 813 813 813 812 812 812 811 811 811 810 810 809 808 807 807 806 805 804 803 803 802 801 800
850 849 848 847 846 845 844 843 843 842 841 840 840 839 838 837 836 835 835 834 833 832 831 830 830 829 828 827 826 825 824 824 823 822 822 821 820 819 818 818 817 816 816 815 814 813 813 813 812 812 812 811 811 811 810 810 809 808 808 807 806 806 805 804 803 802 801 800 800
849 848 847 847 846 845 844 843 843 842 841 840 839 839 838 837 836 835 835 834 833 832 831 830 830 829 828 827 826 825 824 823 822 822 821 820 819 819 818 817 817 816 815 814 814 813 813 812 812 812 812 811 811 810 810 809 809 808 807 807 806 805 804 803 802 801 800 800 799
849 848 847 846 845 845 844 843 843 842 842 840 840 839 838 837 837 836 835 834 833 832 831 830 829 828 827 826 825 824 824 823 822 821 820 820 819 818 818 817 816 816 815 815 814 813 813 812 812 812 812 811 811 810 809 809 808 807 807 806 805 804 803 802 801 800 800 799 798
848 847 847 846 845 844 844 843 843 842 841 841 840 839 838 837 837 836 835 834 833 832 831 830 829 828 827 826 825 824 823 822 822 821 820 819 819 818 817 817 816 816 815 815 814 813 813 812 812 812 811 811 810 810 809 808 807 807 806 805 804 803 802 801 800 800 799 798 797
848 847 847 846 845 844 844 843 843 842 841 841 840 839 838 837 837 836 835 834 833 832 831 830 829 827 827 826 825 824 823 822 822 821 820 819 819 818 817 817 816 816 815 814 814 813 812 812 812 812 811 810 810 809 808 807 807 806 805 804 803 802 801 801 800 799 798 797 796
847 847 846 846 845 844 844 843 843 842 841 841 840 839 838 837 837 836 835 834 832 832 831 829 828 827 826 825 824 824 823 822 821 821 820 819 819 818 817 817 816 816 815 814 813 813 812 812 812 811 810 810 809 808 807 806 805 804 803 802 802 801 800 800 799 798 797 797 796
847 847 846 845 845 844 844 843 842 842 841 840 840 839 838 837 836 835 834 833 832 831 830 829 828 827 826 825 824 823 823 822 821 821 820 819 818 818 817 817 816 815 815 814 813 813 812 812 811 810 810 809 808 807 806 805 804 803 802 801 800 799 799 798 797 797 796 795 795
847 846 846 845 844 844 843 843 842 841 841 840 839 838 838 837 836 835 834 833 832 831 830 829 828 827 826 825 824 823 823 822 821 821 820 819 818 818 817 817 816 815 815 814 813 813 812 811 811 810 809 808 807 807 806 805 803 802 801 800 799 798 797 797 796 795 794 794 793
846 846 845 844 844 843 843 842 842 841 840 840 839 838 837 837 836 835 834 833 832 831 830 829 828 827 826 825 824 823 822 822 821 820 820 819 818 817 817 816 816 815 814 814 813 813 812 811 810 809 808 807 807 806 805 804 803 802 801 800 798 797 796 795 794 794 793 792 791
846 845 844 844 843 843 842 842 841 841 840 839 838 838 837 836 835 834 833 832 831 830 829 828 827 826 826 825 824 823 822 822 821 820 819 819 818 817 817 816 815 815 814 813 813 812 812 811 810 809 808 807 806 805 804 803 802 801 800 799 798 797 795 794 793 792 792 791 790
845 844 844 843 843 842 842 841 841 840 839 839 838 837 836 836 835 834 833 832 831 830 829 828 827 826 825 824 823 823 822 821 821 820 819 818 817 817 816 816 815 814 814 813 812 812 811 810 809 808 807 807 806 805 804 802 802 801 800 798 797 796 795 793 792 791 790 789 788
844 844 843 843 842 842 841 841 840 840 839 838 837 837 836 835 834 833 832 831 830 829 828 827 826 825 824 823 823 822 822 821 820 819 819 818 817 817 816 815 814 814 813 812 812 811 810 810 809 808 807 806 805 804 803 802 801 800 799 798 797 795 794 793 791 790 789 788 787
843 843 842 842 842 841 841 840 840 839 838 837 837 836 835 834 833 832 832 830 829 828 827 827 826 825 824 823 822 822 821 820 820 819 818 818 817 816 815 815 814 813 813 812 812 811 810 809 808 807 806 805 804 803 802 802 800 799 798 797 796 794 793 792 790 789 788 787 786
843 842 842 842 841 841 840 840 839 838 838 837 836 835 834 833 832 832 831 830 829 828 827 826 825 824 823 822 822 821 821 820 819 819 818 817 817 816 815 814 814 813 812 812 811 810 809 808 807 807 806 805 804 803 802 801 799 798 797 796 795 793 792 791 789 788 787 786 784
842 842 841 841 841 840 840 839 838 838 837 836 835 835 834 833 832 831 830 829 828 827 826 825 824 823 823 822 822 821 820 820 819 819 818 817 817 816 815 814 813 813 812 811 810 809 809 808 807 806 805 804 803 802 801 800 798 797 796 795 793 792 791 790 788 787 786 785 783
842 841 841 840 840 839 839 838 838 837 836 836 835 834 833 832 831 830 830 828 827 827 826 825 824 823 822 822 821 821 820 819 819 818 818 817 817 816 815 814 813 812 812 811 810 809 808 807 806 805 804 803 802 801 800 799 797 796 795 794 792 791 790 788 787 786 785 784 783
841 840 840 839 839 838 838 837 837 836 835 835 834 833 832 831 831 830 829 828 827 826 825 824 823 822 822 822 821 821 820 819 819 818 817 817 816 815 815 814 813 812 811 810 810 809 808 807 806 805 804 802 802 800 799 798 797 795 794 792 791 790 789 787 786 785 784 783 782
840 840 839 839 838 838 837 837 836 835 834 834 833 832 832 831 830 829 828 827 826 826 825 824 823 822 822 821 821 820 820 819 819 818 817 817 816 815 814 813 813 812 811 810 809 809 808 807 806 805 803 802 801 800 798 797 795 794 792 791 790 789 787 786 785 784 783 782 781
839 839 838 838 837 837 837 836 835 834 833 833 832 831 831 830 829 828 827 827 826 825 824 823 822 822 822 821 821 820 820 819 818 818 817 816 816 815 814 813 812 812 811 810 809 808 807 807 806 805 803 802 800 799 797 796 794 793 792 790 789 787 787 785 784 783 782 781 780
839 838 837 837 837 836 836 835 834 833 833 832 831 830 830 829 828 827 827 826 825 824 823 823 822 822 822 821 821 820 819 819 818 817 817 816 815 814 814 813 812 811 811 810 809 808 807 806 805 804 802 801 799 798 796 795 793 792 791 789 788 787 786 785 783 782 782 781 779
838 837 837 836 836 835 835 834 833 832 832 831 830 830 829 828 827 827 826 825 824 823 823 822 822 822 821 821 821 820 819 818 818 817 816 816 815 814 813 812 812 811 810 809 808 807 807 806 804 803 802 800 798 797 795 794 792 791 790 788 787 786 785 784 783 782 781 780 778
837 837 836 836 835 834 834 833 832 832 831 830 830 829 828 827 827 826 825 824 823 823 822 822 822 822 821 821 820 820 819 818 817 817 816 815 814 813 813 812 811 810 809 809 808 807 806 805 804 802 801 799 798 796 794 793 792 790 789 787 786 785 784 783 782 781 780 779 778
836 836 835 835 834 833 833 832 832 831 830 829 829 828 827 827 826 825 824 824 823 822 822 822 822 821 821 820 820 819 818 818 817 816 816 815 814 813 812 812 811 810 809 808 807 807 805 804 803 802 801 799 797 796 794 792 791 789 788 787 785 784 783 782 781 780 779 778 777
836 835 834 834 833 833 832 832 831 830 829 829 828 827 826 826 825 824 824 823 823 822 822 822 821 821 821 820 820 819 818 817 817 816 815 814 814 813 812 811 810 809 809 808 807 806 805 804 802 801 800 798 797 795 793 792 790 788 787 786 784 783 782 781 780 779 778 777 776
835 834 834 833 832 832 831 831 830 829 829 828 827 826 826 825 824 824 823 823 822 822 822 822 821 821 820 820 819 819 818 817 817 816 815 814 813 812 812 811 810 809 808 807 806 805 804 803 802 801 799 798 796 794 793 791 790 788 786 785 784 782 781 780 779 778 777 776 775
Wind_Speed
28 28 29 28 28 28 27 26 26 25 24 24 23 23 22 22 23 23 23 23 24 25 25 24 24 23 22 21 20 20 19 19 18 17 17 16 16 15 15 15 15 15 14 14 13 12 12 11 11 10 10 9 10 11 12 14 15 15 16 16 16 15 14 14 13 12 11 11 12
29 29 29 29 29 28 28 27 27 26 25 24 23 22 22 23 23 23 24 24 24 25 25 25 24 23 22 21 20 19 19 19 19 18 17 16 16 16 16 15 15 15 15 15 14 13 12 11 11 10 9 9 9 9 10 12 13 14 14 14 14 13 13 12 11 11 10 10 11
29 30 30 30 30 29 28 28 27 26 25 24 23 22 22 23 23 23 24 24 24 24 24 24 24 23 21 20 20 19 19 19 19 18 17 16 16 15 15 15 16 16 16 16 15 13 12 10 9 9 8 8 9 10 11 11 11 11 11 11 11 10 10 10 9 9 9 9 9
30 31 31 31 30 30 29 28 28 27 25 24 23 23 23 23 23 24 24 24 24 23 23 23 23 22 21 20 19 19 19 19 18 18 17 16 15 15 16 16 16 17 16 16 14 13 11 10 9 8 8 8 8 9 9 9 9 9 9 9 8 8 8 8 8 8 8 8 9
31 31 31 31 31 30 29 28 27 26 25 24 23 23 23 24 24 24 24 24 24 23 22 21 21 21 20 19 19 19 19 19 18 17 16 15 15 15 16 16 16 16 15 14 13 12 11 10 9 9 8 8 8 8 8 8 7 7 7 6 6 6 5 6 6 6 6 7 8
31 32 32 31 31 30 29 28 27 25 24 23 22 23 23 24 24 24 24 24 24 23 22 20 19 19 19 18 18 19 19 19 18 17 16 15 14 14 15 15 15 14 13 12 11 11 10 10 9 9 8 8 8 7 7 6 5 5 4 3 3 3 3 3 4 5 6 7 8
31 32 32 31 31 30 29 27 26 24 23 22 22 22 23 23 23 23 23 23 23 22 21 19 18 17 17 17 18 18 19 18 17 15 14 14 13 13 13 13 13 12 11 10 10 10 10 9 9 8 7 7 6 6 6 5 5 4 3 2 2 3 3 3 4 5 6 7 8
31 31 31 31 30 29 28 26 24 23 22 21 21 22 22 23 23 23 23 23 23 22 20 18 17 16 16 16 17 17 17 17 15 14 13 12 12 12 12 11 11 10 9 9 9 9 9 9 8 7 7 6 6 6 6 6 6 5 5 5 6 6 7 7 7 7 7 8 8
31 31 31 30 29 28 26 25 23 22 21 21 21 21 22 22 22 22 22 23 22 21 19 18 16 15 15 15 15 15 15 14 12 12 11 11 11 11 10 10 9 8 8 9 9 8 8 8 7 7 7 7 7 7 8 8 8 8 9 9 10 10 10 9 9 9 9 10 10
31 31 30 30 28 27 25 24 22 21 20 20 21 21 21 21 21 21 22 22 22 21 20 18 16 15 14 13 13 12 12 11 10 10 10 10 10 9 9 8 8 8 8 8 8 8 8 7 7 8 8 8 9 9 10 10 11 12 12 12 12 12 12 12 12 12 12 11 11
30 30 29 28 27 26 24 23 21 21 20 20 20 20 20 21 21 21 21 21 22 21 20 19 17 15 14 12 11 10 9 9 10 9 8 8 8 7 7 7 8 8 8 8 8 8 8 8 9 9 10 10 11 11 12 13 13 14 15 15 15 15 15 15 14 14 13 13 13
29 29 29 28 26 25 23 22 21 20 20 20 19 19 20 20 21 21 21 21 22 21 20 19 17 16 13 11 9 9 9 9 9 8 7 6 5 5 6 8 9 10 11 11 11 11 11 11 12 12 13 13 13 14 14 15 15 16 16 16 16 17 17 17 16 15 15 15 14
29 28 28 27 25 23 22 21 20 19 19 18 18 19 19 20 20 20 21 21 21 20 19 18 17 16 14 11 10 9 9 9 8 7 6 5 4 4 5 8 11 13 14 15 15 15 15 15 16 16 16 16 16 16 16 16 16 16 16 17 17 17 18 17 17 16 16 16 16
28 28 27 26 24 22 21 20 19 18 18 17 17 18 19 19 20 20 20 20 20 19 18 17 16 15 14 13 12 10 9 9 8 7 6 5 5 5 7 10 12 14 16 17 17 17 17 17 17 17 18 18 17 16 15 15 15 15 15 16 16 17 17 17 16 16 17 17 17
28 27 27 25 23 21 20 19 18 17 16 16 16 17 18 18 19 19 19 19 18 18 17 16 16 15 15 14 13 12 11 9 8 8 7 7 8 9 11 13 15 16 17 17 16 15 14 14 14 14 15 15 14 14 13 13 13 14 14 15 16 16 17 17 16 16 17 18 18
27 26 26 24 22 21 19 18 17 16 15 15 15 16 17 17 17 18 18 18 18 17 16 15 15 15 15 15 14 13 12 10 10 9 10 10 11 12 14 15 16 16 16 15 14 13 12 11 11 11 11 11 11 11 11 12 13 14 15 15 16 16 17 16 16 16 17 18 19
26 25 24 23 21 20 18 17 16 14 14 14 15 15 16 16 16 16 17 17 17 16 15 14 14 14 15 15 14 14 13 12 11 11 12 12 13 14 15 15 14 14 12 11 10 10 10 10 10 10 10 10 11 11 12 12 13 14 15 16 16 16 16 16 16 16 17 18 19
25 24 23 21 20 18 17 16 14 13 13 13 14 14 14 15 15 15 15 15 15 15 14 13 13 14 14 15 15 14 14 14 13 12 12 12 13 13 13 12 11 10 10 9 9 9 9 10 10 10 11 11 12 12 13 14 14 15 16 16 16 16 16 16 16 17 17 18 19
24 23 21 20 18 17 16 15 13 13 13 13 13 13 13 13 13 13 13 13 13 13 13 13 13 13 14 14 14 14 14 14 14 13 12 12 11 11 10 10 10 9 9 9 9 9 9 10 10 11 11 12 12 13 14 15 15 16 16 17 17 17 17 17 17 17 18 18 19
23 21 20 18 16 15 14 13 12 12 12 13 13 13 13 13 13 13 13 13 13 13 13 13 13 14 14 14 14 13 13 13 13 13 12 11 10 10 9 9 9 9 9 9 9 9 10 10 10 11 11 12 13 13 14 15 16 16 17 18 18 18 19 19 19 19 19 19 20
21 20 18 16 14 13 13 12 12 12 12 13 13 13 13 13 13 13 13 14 14 14 14 14 15 15 15 14 14 13 12 12 12 11 11 10 9 9 9 8 8 8 8 9 9 10 10 10 10 11 11 12 12 13 14 15 16 17 18 18 19 19 20 20 20 20 21 21 21
20 18 16 14 12 11 11 11 11 11 12 12 12 13 13 13 13 13 14 14 15 15 15 15 16 16 15 15 14 13 11 10 10 10 9 9 8 8 8 8 8 9 9 10 10 11 11 11 11 11 12 12 13 14 15 16 17 18 18 19 19 19 19 19 20 21 21 22 22
18 16 14 13 11 10 10 10 10 11 11 12 12 13 13 13 14 14 14 15 15 15 16 16 17 16 16 15 13 12 10 9 9 9 9 9 9 9 9 9 10 10 11 12 12 12 13 13 13 13 14 14 15 15 16 17 18 18 19 19 20 19 19 19 19 19 20 21 22
16 14 13 11 10 9 9 9 10 10 11 12 12 13 14 14 14 15 15 15 16 16 16 16 16 16 15 14 12 11 9 9 9 9 9 9 9 10 10 10 11 12 12 13 13 13 14 14 14 15 15 16 16 16 17 17 18 19 19 20 21 21 21 21 20 20 20 21 21
15 13 11 10 9 8 8 9 10 10 11 11 12 13 14 14 15 16 16 16 16 16 16 16 16 15 15 13 11 10 10 10 10 10 10 10 10 10 11 12 12 13 14 14 14 14 15 15 15 15 16 16 17 17 17 18 18 19 20 21 21 22 22 23 22 22 22 22 22
14 12 10 9 8 8 8 9 9 10 10 11 12 13 14 14 15 16 16 17 17 17 17 16 15 14 13 12 11 10 10 10 11 10 10 10 11 11 12 13 14 14 15 15 16 16 16 16 16 17 17 17 17 18 18 19 19 20 20 21 22 23 23 24 24 24 24 23 23
13 11 9 8 8 8 8 8 9 9 10 11 12 13 14 15 15 16 16 17 17 17 17 16 14 13 12 11 11 10 10 10 10 10 10 10 11 12 13 14 15 15 16 16 17 17 17 17 17 17 18 18 18 18 19 20 20 21 21 22 22 23 23 24 24 24 24 23 23
12 10 9 8 7 7 8 8 9 10 11 11 12 13 14 15 15 16 16 17 17 17 17 16 14 12 11 10 10 10 10 10 9 9 10 10 11 13 14 15 15 16 16 16 17 17 18 18 18 18 18 18 19 19 20 20 21 22 23 23 23 23 23 23 23 23 23 23 22
11 10 9 8 7 8 8 9 9 10 11 12 13 13 14 15 15 16 16 17 17 17 17 16 14 12 10 10 10 9 9 8 8 9 9 11 12 14 15 15 16 16 16 16 17 17 18 18 18 18 18 19 19 20 20 21 22 23 23 24 23 23 23 23 23 22 22 22 21
11 9 8 8 8 8 9 9 10 11 12 12 13 14 14 15 15 16 16 17 17 17 17 16 14 12 10 9 9 8 7 7 8 9 10 12 13 14 15 16 16 16 16 16 17 17 17 18 18 18 19 19 20 20 21 22 23 23 24 24 23 23 22 22 22 22 22 22 21
10 9 9 8 9 9 10 10 11 12 13 13 14 14 15 15 15 16 16 17 17 17 16 16 14 12 10 9 8 7 6 7 8 10 11 13 14 14 15 15 16 16 16 16 16 17 17 18 18 18 19 19 20 21 22 22 23 23 23 23 23 22 22 21 21 21 21 21 22
10 9 9 9 9 10 11 11 12 13 14 14 15 15 15 15 15 16 16 16 16 16 16 15 14 12 10 8 7 6 7 8 10 11 12 13 14 14 15 15 16 16 15 15 16 16 16 17 17 18 18 19 20 21 22 23 23 23 23 23 22 22 21 20 20 20 20 21 21
10 9 9 10 10 11 12 12 13 14 15 15 15 15 15 15 15 16 16 16 16 16 15 15 14 12 9 7 6 6 8 9 11 11 12 13 13 14 15 15 15 15 14 14 14 14 15 15 16 17 18 19 20 21 23 24 24 24 24 23 22 21 20 19 19 19 19 19 19
10 9 10 10 11 12 12 13 14 15 16 16 16 16 15 16 16 16 16 16 16 15 14 14 12 10 8 6 6 7 9 10 11 12 12 13 13 14 14 15 15 14 13 12 12 12 12 13 14 15 17 19 21 22 24 25 25 25 24 23 22 20 19 18 18 17 17 17 18
10 10 10 10 11 12 13 14 15 16 16 16 16 16 15 15 16 16 16 16 15 14 13 12 11 9 7 6 7 8 10 11 11 12 12 13 13 14 14 14 14 13 12 11 11 11 12 13 14 15 17 20 22 23 24 25 25 24 23 22 21 20 18 18 17 17 17 17 17
10 10 11 11 12 13 14 15 15 16 16 16 16 16 15 15 16 16 16 16 15 13 12 11 9 8 7 7 8 9 10 11 11 12 12 13 13 13 13 14 13 13 12 12 11 11 12 14 15 17 18 20 22 23 24 24 24 24 23 21 20 19 18 18 17 17 18 18 19
10 10 11 12 13 13 14 15 15 15 15 15 15 16 16 16 16 16 16 15 14 12 11 10 8 7 7 8 9 10 10 11 11 12 12 12 13 13 13 13 13 13 13 12 12 12 14 15 17 18 19 21 22 23 24 24 24 23 23 21 20 19 19 18 18 19 19 20 20
10 11 11 12 13 14 14 14 14 14 15 15 15 16 16 17 17 16 15 14 12 11 9 9 8 7 7 8 9 10 10 10 11 11 11 12 12 13 13 13 13 13 13 13 13 14 15 17 18 19 19 20 22 23 23 24 24 24 23 22 21 20 19 18 19 19 20 21 21
10 11 12 12 13 13 14 13 14 14 15 16 16 17 17 17 16 15 14 12 10 9 8 8 7 7 8 9 9 9 9 9 10 11 11 12 12 13 13 13 13 13 14 14 15 16 17 18 19 19 19 20 21 22 23 24 24 24 24 23 22 21 19 18 19 20 20 21 21
10 11 12 12 13 13 13 13 13 14 15 16 17 17 17 16 15 14 11 9 8 8 8 8 8 8 8 9 9 9 9 9 10 11 11 11 12 12 12 13 13 13 14 15 16 17 18 19 19 19 19 20 21 22 23 23 24 24 24 23 22 20 19 19 19 20 20 21 21
11 11 12 12 12 12 13 13 13 14 16 16 17 17 16 15 13 11 9 8 8 9 9 9 9 9 9 8 8 8 9 9 10 11 11 12 12 12 12 13 13 14 14 15 17 18 19 19 19 19 19 20 21 21 22 23 24 23 23 22 20 19 19 19 20 20 20 20 20
Wind_Direction
21 18 15 12 10 7 5 3 1 360 358 357 355 353 352 351 349 348 348 347 346 345 344 342 339 336 334 332 333 333 334 334 335 335 335 337 339 341 341 342 343 344 344 344 345 346 348 353 359 3 5 9 16 24 31 34 36 34 33 34 39 41 43 46 48 48 46 43 39
18 15 12 10 7 5 3 1 360 359 358 357 356 354 352 351 350 348 347 347 346 345 344 343 341 338 334 331 331 331 332 331 332 332 333 335 336 337 338 339 340 341 341 341 342 343 346 349 354 1 9 17 25 32 37 42 44 42 40 40 40 39 40 41 41 41 41 41 40
15 13 11 8 6 4 2 0 359 358 357 357 356 355 353 351 349 348 346 344 343 343 344 344 342 339 334 330 329 329 329 329 330 330 331 333 334 334 335 337 340 341 342 341 340 341 343 347 354 3 14 24 34 45 49 48 44 41 37 33 29 27 25 24 23 23 25 27 29
14 12 10 8 5 4 2 359 358 357 357 356 355 354 352 350 348 346 344 342 341 341 341 342 342 339 334 329 327 326 327 327 327 327 328 330 332 333 334 336 339 341 342 342 342 342 344 348 353 359 9 20 30 36 40 41 39 35 28 21 16 12 11 10 9 10 12 14 14
13 11 9 6 4 2 0 359 358 357 357 356 354 352 350 348 347 345 344 342 340 339 339 339 339 338 333 328 325 324 324 324 324 324 325 327 330 332 333 335 339 343 345 346 347 349 353 356 1 7 13 18 23 27 31 34 35 32 24 15 10 8 8 10 9 7 5 3 2
11 9 6 4 2 0 359 357 357 356 356 355 353 351 349 347 347 346 344 342 340 339 338 336 337 336 332 327 323 321 320 321 321 321 322 323 327 330 333 338 344 349 353 355 358 3 6 8 10 14 16 17 20 22 24 24 25 20 13 6 7 10 11 9 359 353 350 349 349
9 7 5 3 1 359 357 356 356 355 355 355 353 350 349 348 348 348 346 345 343 342 340 337 336 334 332 327 321 318 317 318 318 319 320 322 326 331 338 348 357 2 5 8 11 13 14 13 11 10 11 12 12 10 4 357 350 339 327 326 332 329 321 318 324 329 332 334 335
7 5 3 1 359 358 356 355 355 355 356 355 353 351 350 351 352 352 351 351 350 348 345 341 338 336 333 330 323 318 316 317 319 321 322 325 333 343 354 3 9 14 17 17 17 15 13 10 6 1 358 356 350 340 332 326 320 310 302 303 307 308 308 307 311 314 318 322 325
5 4 1 360 358 357 356 355 356 357 357 356 354 353 354 357 358 358 358 357 356 355 352 348 344 340 338 336 329 322 318 320 324 327 331 338 349 360 8 14 18 20 19 17 14 10 6 2 356 350 343 335 327 321 317 313 310 306 303 304 305 306 306 306 306 307 310 315 317
5 3 1 359 358 356 355 355 356 358 358 357 357 357 360 3 4 4 4 3 2 1 360 356 351 348 347 346 338 330 326 328 331 336 344 356 6 11 12 12 13 11 9 6 2 358 353 348 341 336 329 322 316 312 310 309 308 307 308 308 308 307 306 306 305 305 307 309 311
4 2 0 358 357 355 355 355 357 359 360 360 0 2 5 8 9 9 8 7 7 6 4 1 358 356 356 355 347 339 335 336 338 344 354 9 18 14 1 351 349 348 346 344 340 336 331 327 324 321 318 315 312 309 308 308 308 308 309 309 309 308 307 306 306 305 304 305 306
4 2 0 358 357 355 355 356 358 1 2 3 4 7 10 12 11 10 10 10 10 9 8 6 4 3 2 1 354 347 342 341 343 350 3 19 26 11 343 328 324 323 323 322 318 314 310 308 308 309 309 310 309 308 308 308 308 309 309 310 310 309 309 308 306 304 303 302 302
4 2 360 358 356 355 355 357 0 2 4 6 8 11 13 13 13 12 12 12 13 12 11 10 9 9 8 7 3 357 352 350 353 0 11 21 20 357 329 317 313 313 312 311 309 306 302 300 299 300 301 304 306 307 308 309 309 310 311 311 311 311 311 310 306 303 301 300 299
4 2 360 358 356 355 356 359 1 3 5 8 12 14 14 14 13 12 13 14 15 14 13 13 14 15 13 11 8 5 3 3 5 7 8 5 354 338 326 318 314 313 312 312 311 309 305 302 299 298 298 300 303 306 309 311 313 314 316 317 317 316 315 313 307 301 298 297 297
4 2 360 357 356 355 357 360 2 4 7 11 15 15 15 14 13 13 13 14 16 16 15 14 15 16 15 13 10 8 7 6 3 358 352 344 336 328 322 318 316 315 317 318 320 321 320 316 311 306 303 303 306 310 314 317 318 320 321 322 322 322 320 316 309 301 295 294 294
4 2 360 357 356 356 358 1 3 6 9 13 16 16 15 14 13 13 12 12 14 15 15 13 13 13 12 11 8 5 1 357 351 344 336 329 324 320 318 316 317 318 322 326 331 336 338 337 332 327 323 321 322 324 325 324 324 324 324 324 325 324 322 319 312 302 295 292 291
4 2 360 357 356 357 359 2 5 7 10 13 16 16 14 12 12 12 11 10 10 10 12 12 12 10 8 7 4 360 355 350 344 337 330 324 320 319 318 320 323 327 332 339 346 351 353 351 348 345 343 342 339 336 333 329 327 325 325 324 324 324 323 320 315 307 298 293 290
3 1 359 357 356 358 0 4 7 8 9 12 15 14 12 10 9 9 9 8 6 5 6 9 10 7 4 2 1 358 354 350 346 341 334 329 327 327 330 335 341 348 355 1 5 4 2 358 355 352 349 346 342 338 334 331 328 326 325 324 323 322 321 320 316 311 304 298 294
3 0 358 357 357 359 3 7 7 8 9 11 12 11 9 7 6 5 5 5 3 1 1 3 4 2 359 357 357 356 354 352 350 347 344 342 343 347 353 0 6 11 14 14 12 8 4 359 354 350 346 342 339 336 333 330 328 327 325 324 323 321 321 319 317 313 308 303 299
2 359 357 356 358 2 7 8 8 8 9 10 9 8 6 5 3 2 2 1 0 358 358 357 357 355 354 352 352 353 353 353 352 352 352 355 359 5 10 14 16 15 14 11 8 4 360 355 351 347 343 340 336 333 331 329 327 326 325 325 324 323 321 319 316 313 310 306 303
1 358 356 356 0 6 9 9 7 8 9 9 7 5 4 2 1 0 360 358 357 356 356 355 355 353 351 349 349 350 352 353 354 356 359 3 7 11 12 11 9 6 3 1 359 356 353 350 346 343 339 335 332 329 328 326 325 324 324 323 324 323 322 319 315 312 309 307 305
360 357 355 357 4 10 10 7 6 7 7 7 5 3 1 360 358 357 356 355 354 355 355 357 357 355 352 349 349 351 354 356 357 359 2 5 7 7 5 3 1 358 356 355 354 351 348 344 340 336 332 329 326 324 323 322 322 321 320 320 320 320 320 318 315 311 309 306 304
358 355 354 357 6 11 9 4 3 4 5 4 2 0 358 357 355 353 352 351 352 353 355 357 358 358 355 352 351 353 356 358 359 359 1 3 3 2 1 359 359 359 358 357 355 351 347 342 337 333 329 327 325 323 322 322 321 320 319 318 317 316 315 314 313 311 309 307 306
357 354 353 357 5 8 4 359 359 0 1 0 359 356 354 352 350 349 348 348 348 350 352 356 358 358 356 354 353 353 355 356 357 358 359 359 359 358 358 358 359 359 359 358 355 352 347 343 339 335 332 330 328 327 325 325 324 324 323 322 320 317 315 313 311 310 310 309 307
355 352 352 356 1 2 358 356 356 357 357 356 354 352 350 349 348 346 345 345 345 346 348 351 355 356 355 353 351 351 351 352 354 355 355 354 354 354 354 356 356 355 355 354 352 349 346 344 341 339 337 334 333 331 330 330 330 329 328 327 325 323 320 316 314 312 311 310 309
353 351 350 353 355 354 354 353 352 352 352 351 349 349 349 348 347 345 344 344 344 344 345 347 350 352 352 349 345 343 344 346 348 349 349 349 350 350 351 353 353 352 351 350 349 347 345 345 343 342 340 339 338 337 336 335 334 333 332 331 329 327 324 321 319 316 314 312 311
351 348 346 346 347 349 349 348 347 347 347 347 347 348 348 347 347 346 345 344 343 342 343 343 346 348 346 341 336 334 336 338 339 340 342 345 349 351 353 353 353 353 352 350 348 347 346 346 345 344 343 342 341 341 340 339 338 337 335 334 331 329 326 323 321 319 317 314 313
347 343 340 338 340 341 341 341 341 342 343 344 345 345 346 346 346 346 345 344 343 342 342 342 343 343 338 331 327 326 327 329 330 335 341 346 351 354 355 356 355 355 353 351 349 348 348 347 346 345 345 344 344 343 342 342 340 339 337 335 333 330 326 323 321 320 319 318 316
343 337 332 330 330 331 333 334 335 337 338 339 340 341 342 343 345 345 345 344 343 343 343 342 341 338 330 322 318 318 319 323 329 337 345 350 353 356 357 357 357 355 353 351 350 350 349 348 347 346 345 344 344 343 343 342 341 339 337 335 332 329 326 323 320 319 319 319 319
339 332 324 320 321 323 325 328 329 330 331 332 333 335 337 339 342 344 345 345 345 344 342 340 339 334 326 315 311 311 316 324 335 343 349 352 355 357 357 358 356 354 352 351 350 350 349 348 347 346 345 344 343 342 341 340 338 337 334 332 330 327 324 322 320 318 318 319 320
334 325 317 313 314 317 320 322 323 324 325 326 328 330 332 335 339 341 343 344 343 341 339 338 337 332 323 313 307 309 320 333 342 347 351 353 355 356 357 357 354 352 351 351 350 349 348 348 347 346 345 344 343 341 339 337 335 333 331 329 327 326 323 321 319 318 319 320 321
328 319 312 309 310 313 316 318 319 320 321 322 323 325 328 331 334 337 339 340 339 338 337 336 335 331 323 312 307 314 329 339 346 348 350 352 354 355 355 354 353 352 351 351 350 349 348 348 347 346 345 343 341 339 336 334 332 330 329 327 326 325 324 322 321 320 320 321 323
323 314 308 306 309 312 315 317 318 319 319 320 321 322 324 327 330 333 335 337 337 337 337 335 334 329 321 309 308 320 334 342 346 347 349 350 352 352 352 352 352 352 353 352 350 349 349 348 347 345 343 341 338 336 334 332 330 329 329 328 328 327 326 325 324 323 323 324 325
318 310 306 305 308 312 315 318 319 319 319 319 320 321 322 325 327 331 334 335 335 335 334 332 330 327 318 309 313 327 338 342 344 345 347 348 350 350 351 351 351 352 353 351 350 350 349 348 347 344 340 337 335 333 332 331 331 331 331 331 331 331 331 331 330 330 329 329 328
314 307 304 306 309 313 316 318 319 319 319 319 320 321 322 325 327 330 332 333 333 332 330 329 327 324 319 314 322 332 339 341 342 343 345 346 348 348 349 349 349 349 349 348 347 347 346 346 345 343 339 334 333 332 332 332 332 333 334 335 336 337 338 339 338 336 335 333 330
310 305 304 306 311 314 317 319 320 320 320 320 321 323 324 326 327 329 330 331 330 329 328 328 327 324 319 319 326 333 336 338 340 342 342 344 346 347 347 346 345 345 344 343 342 342 342 342 342 341 338 334 333 333 333 334 335 335 337 338 339 341 342 341 340 338 335 333 330
307 303 303 307 312 316 318 320 320 321 321 322 324 325 326 327 327 328 328 328 327 327 328 329 328 324 319 320 325 329 333 336 339 341 342 343 344 344 343 342 341 340 340 340 339 340 341 341 341 341 339 336 335 334 335 336 336 337 338 339 339 340 340 339 338 336 333 331 329
304 302 304 309 314 317 319 320 321 322 323 324 326 326 327 327 327 327 327 326 326 327 329 332 329 323 318 319 324 328 332 336 339 341 342 341 341 340 340 338 337 337 338 338 339 340 342 342 343 343 341 338 336 336 336 337 337 337 337 337 337 337 337 336 335 334 331 329 328
303 302 306 311 315 318 319 321 322 323 325 326 327 327 327 326 326 326 326 326 328 331 333 333 329 321 316 318 324 329 334 337 340 341 342 340 338 337 336 335 334 334 336 338 340 342 343 344 344 343 341 339 337 337 337 337 337 336 336 335 333 332 333 333 334 332 329 327 327
303 304 307 312 315 317 319 321 323 324 325 327 328 328 327 327 326 326 327 329 335 338 338 336 330 323 319 321 327 333 337 338 340 342 342 339 337 334 333 332 331 332 335 338 340 343 345 345 344 343 342 340 339 338 338 337 336 336 334 333 331 330 330 331 331 330 327 326 327
303 305 308 312 315 317 318 321 323 324 326 328 329 328 328 327 327 329 334 342 346 344 341 340 335 330 326 326 333 340 344 342 342 342 342 339 336 332 330 329 329 332 335 338 342 345 346 346 345 344 343 341 340 339 339 338 338 336 334 333 332 331 331 331 330 328 327 327 327